FALCON 9 DEB (47611 NORAD) Tracking and Keplerian Element Data
This shows tracking and keplerian element data for the satellite.
Feedback or suggestion? Click here.
Element | Value |
Catalog | 47611 |
Name | FALCON 9 DEB |
Epoch Orbit | 413 |
Epoch Day | 60.87420933 |
Epoch Year | 2021 |
RAAN | 352.1958 |
Inclination | 53.0335 |
Eccentricity | 0.0008802 |
Argument of Perigee | 274.5596 |
Mean Anonmoly | 85.4445 |
Mean Motion | 16.4124614 |
Decay Rate | 0.06681898 |
L1 | 1 47611U 21009BR 21060.87420933 .06681898 12405-4 40911-3 0 9996 |
L2 | 2 47611 53.0335 352.1958 0008802 274.5596 85.4445 16.41246140 4136 |
Live tracking and technical data element details for FALCON 9 DEB (NORAD 47611). FALCON 9 DEB can be tracked NOW for your location showing map with azimuth and elevation plus other details from your city location.
Track the satellite on the map from your city or location and see movement details for azimuth, elevation, latitude, longitude, range, height, and movement on the map or in text.
IsCatalogInMostPopularTable: catalog: 47611, numindb: 22
Update: records affected: 1
GetName: 47611 FALCON 9 DEB
Hit Count: updated at: Fri, 16 Apr 2021 11:56:13 GMT